Starlink 5452

operational
NORAD ID: 54772 Int'l Des: 2022-175 Owner: SPXS Country: US Constellation: starlink
LEOCIRCULAR

关于 Starlink 5452

正在加载描述...

实时位置

正在加载3D地球...

即将过境

高度历史

Altitude vs Time

uPlot chart will show altitude changes over time

两行轨道根数

1 54772U 22175Q 25303.17116954 .00000184 00000-0 29664-4 0 9993
2 54772 53.2179 255.1867 0001287 91.1093 269.0046 15.08826765160427
Epoch: Oct 30, 2025 • Age: 28 hours

当前状态

高度 555.7 km
速度 7.58 km/s
星下点 -44.75°S, 35.7°E
发射日期 Dec 17, 2022
运行时间 2.8 years
类型 internet

技术详情

分类 Payload
质量 305.00 kg
干质量 290.00 kg
总质量 305.00 kg
长度 0.20 m
直径 2.80 m
跨度 9.00 m
形状 Box + pan
制造商 SPXS
平台类型 Starlink
阶段状态 In Orbit
所有者/国家 SPXS/US

大型星座

Loading constellations...